�������l�o���
Date,Time,MP-1(��Sv/h),MP-2(��Sv/h),MP-3(��Sv/h),MP-4(��Sv/h),MP-5(��Sv/h),MP-6(��Sv/h),MP-7(��Sv/h),MP-8(��Sv/h),����,����(m/s),���J
2019/12/11,00:00,0.718,1.032,0.692,1.292,0.906,0.411,0.718,0.680,�k�k��,1.1,��
2019/12/11,00:10,0.719,1.035,0.694,1.297,0.905,0.412,0.720,0.680,�k�k��,1.9,��
2019/12/11,00:20,0.719,1.034,0.693,1.294,0.905,0.410,0.718,0.681,�k��,2.3,��
2019/12/11,00:30,0.718,1.033,0.693,1.294,0.907,0.410,0.719,0.680,�k�k��,1.3,��
2019/12/11,00:40,0.719,1.034,0.693,1.294,0.904,0.411,0.720,0.680,�k�k��,1.7,��
2019/12/11,00:50,0.718,1.036,0.692,1.295,0.904,0.412,0.720,0.682,�k�k��,2.8,��
2019/12/11,01:00,0.719,1.035,0.693,1.293,0.905,0.411,0.719,0.679,�k,3.2,��
2019/12/11,01:10,0.719,1.032,0.691,1.295,0.906,0.410,0.718,0.681,�k,3.8,��
2019/12/11,01:20,0.720,1.036,0.694,1.293,0.903,0.412,0.718,0.681,�k�k��,4.0,��
2019/12/11,01:30,0.720,1.035,0.693,1.296,0.905,0.412,0.718,0.680,�k�k��,4.3,��
2019/12/11,01:40,0.719,1.034,0.692,1.295,0.905,0.411,0.720,0.680,�k�k��,4.4,��
2019/12/11,01:50,0.720,1.034,0.694,1.294,0.905,0.412,0.719,0.681,�k�k��,4.3,��
2019/12/11,02:00,0.719,1.035,0.693,1.295,0.906,0.410,0.718,0.681,�k�k��,4.6,��
2019/12/11,02:10,0.722,1.036,0.692,1.296,0.904,0.411,0.720,0.680,�k�k��,4.9,��
2019/12/11,02:20,0.720,1.035,0.693,1.296,0.905,0.412,0.720,0.682,�k�k��,4.3,��
2019/12/11,02:30,0.718,1.033,0.693,1.296,0.906,0.410,0.717,0.680,�k�k��,4.2,��
2019/12/11,02:40,0.720,1.034,0.694,1.295,0.905,0.411,0.717,0.681,�k�k��,4.7,��
2019/12/11,02:50,0.719,1.034,0.697,1.293,0.905,0.412,0.717,0.680,�k�k��,4.0,��
2019/12/11,03:00,0.721,1.034,0.694,1.299,0.907,0.411,0.719,0.682,�k�k��,3.9,��
2019/12/11,03:10,0.721,1.033,0.695,1.294,0.905,0.412,0.718,0.681,�k��,3.5,��
2019/12/11,03:20,0.719,1.034,0.693,1.295,0.905,0.410,0.719,0.681,�k�k��,3.8,��
2019/12/11,03:30,0.720,1.034,0.693,1.297,0.905,0.411,0.718,0.682,�k��,4.4,��
2019/12/11,03:40,0.720,1.034,0.693,1.297,0.905,0.411,0.721,0.680,�k�k��,3.6,��
2019/12/11,03:50,0.720,1.034,0.693,1.295,0.904,0.411,0.721,0.679,�k�k��,2.5,��
2019/12/11,04:00,0.721,1.034,0.694,1.293,0.905,0.411,0.719,0.680,�k�k��,2.5,��
2019/12/11,04:10,0.719,1.034,0.693,1.294,0.907,0.411,0.720,0.680,�k��,3.3,��
2019/12/11,04:20,0.719,1.034,0.693,1.294,0.906,0.411,0.719,0.680,�k��,4.1,��
2019/12/11,04:30,0.719,1.034,0.692,1.294,0.906,0.411,0.718,0.680,�k��,3.8,��
2019/12/11,04:40,0.719,1.033,0.693,1.295,0.905,0.412,0.718,0.679,�k��,3.0,��
2019/12/11,04:50,0.720,1.036,0.693,1.294,0.905,0.411,0.720,0.681,�k��,2.5,��
2019/12/11,05:00,0.718,1.033,0.693,1.294,0.905,0.412,0.719,0.683,�k��,2.4,��
2019/12/11,05:10,0.717,1.034,0.693,1.294,0.903,0.411,0.718,0.682,�k��,1.7,��
2019/12/11,05:20,0.719,1.036,0.693,1.294,0.907,0.411,0.718,0.681,�k�k��,1.6,��
2019/12/11,05:30,0.719,1.033,0.692,1.295,0.904,0.411,0.719,0.682,�k�k��,1.6,��
2019/12/11,05:40,0.720,1.031,0.694,1.296,0.904,0.410,0.718,0.680,�k��,2.3,��
2019/12/11,05:50,0.719,1.035,0.691,1.296,0.903,0.411,0.718,0.682,�k��,3.5,��
2019/12/11,06:00,0.719,1.032,0.691,1.298,0.905,0.411,0.718,0.681,�k��,4.3,��
2019/12/11,06:10,0.717,1.033,0.693,1.295,0.905,0.411,0.718,0.680,�k�k��,2.7,�L
2019/12/11,06:20,0.717,1.034,0.693,1.294,0.904,0.411,0.720,0.682,�k��,1.7,�L
2019/12/11,06:30,0.717,1.032,0.694,1.291,0.904,0.411,0.718,0.680,���쐼,1.1,��
2019/12/11,06:40,0.718,1.031,0.691,1.295,0.906,0.410,0.718,0.680,�쐼,1.2,��
2019/12/11,06:50,0.718,1.034,0.692,1.292,0.903,0.411,0.718,0.679,��,1.4,��
2019/12/11,07:00,0.717,1.033,0.691,1.294,0.904,0.410,0.717,0.680,���k��,1.7,��
2019/12/11,07:10,0.718,1.033,0.690,1.294,0.905,0.411,0.718,0.681,���k��,1.8,��
2019/12/11,07:20,0.718,1.034,0.691,1.292,0.903,0.409,0.717,0.679,�k��,2.5,��
2019/12/11,07:30,0.719,1.031,0.692,1.294,0.903,0.410,0.717,0.680,���k��,2.5,��
2019/12/11,07:40,0.717,1.030,0.691,1.293,0.903,0.410,0.718,0.679,�k��,2.1,��
2019/12/11,07:50,0.717,1.033,0.691,1.295,0.903,0.411,0.717,0.680,�k��,2.8,��
2019/12/11,08:00,0.717,1.033,0.691,1.295,0.905,0.412,0.716,0.680,�k��,2.8,��
2019/12/11,08:10,0.717,1.032,0.692,1.296,0.904,0.411,0.716,0.681,�k��,2.6,��
2019/12/11,08:20,0.719,1.033,0.691,1.293,0.904,0.411,0.719,0.680,�k��,2.6,��
2019/12/11,08:30,0.718,1.031,0.692,1.293,0.905,0.411,0.718,0.680,�k�k��,2.3,��
2019/12/11,08:40,0.718,1.033,0.690,1.292,0.903,0.410,0.718,0.680,�k��,2.7,��
2019/12/11,08:50,0.720,1.035,0.687,1.294,0.904,0.411,0.718,0.682,�k��,3.2,��
2019/12/11,09:00,0.720,1.033,0.688,1.296,0.904,0.410,0.719,0.682,�k��,2.6,��
2019/12/11,09:10,0.721,1.031,0.688,1.295,0.904,0.410,0.718,0.680,�k��,2.2,��
2019/12/11,09:20,0.720,1.030,0.688,1.294,0.906,0.411,0.719,0.680,�k�k��,2.1,��
2019/12/11,09:30,0.720,1.029,0.690,1.295,0.904,0.410,0.718,0.682,�k�k��,1.1,��
2019/12/11,09:40,0.721,1.028,0.690,1.295,0.904,0.412,0.715,0.679,-,CALM,��
2019/12/11,09:50,0.721,1.029,0.687,1.295,0.905,0.411,0.717,0.682,�쓌,0.5,��
2019/12/11,10:00,0.721,1.031,0.690,1.295,0.905,0.411,0.717,0.682,-,CALM,��
2019/12/11,10:10,0.722,1.032,0.691,1.294,0.907,0.411,0.716,0.684,-,CALM,��
2019/12/11,10:20,0.722,1.032,0.690,1.297,0.907,0.413,0.717,0.680,�k��,0.5,��
2019/12/11,10:30,0.719,1.029,0.689,1.296,0.905,0.412,0.718,0.681,-,CALM,��
2019/12/11,10:40,0.721,1.032,0.691,1.295,0.906,0.410,0.719,0.682,-,CALM,��
2019/12/11,10:50,0.720,1.031,0.693,1.291,0.906,0.411,0.717,0.682,�k�k��,0.5,��
2019/12/11,11:00,0.720,1.031,0.692,1.294,0.908,0.412,0.718,0.683,�k,1.1,��
2019/12/11,11:10,0.721,1.032,0.692,1.293,0.909,0.410,0.716,0.681,�k,1.9,��
2019/12/11,11:20,0.720,1.034,0.693,1.295,0.909,0.410,0.716,0.682,�k,2.0,��
2019/12/11,11:30,0.721,1.033,0.693,1.295,0.907,0.409,0.716,0.682,�k�k��,1.6,��
2019/12/11,11:40,0.720,1.031,0.692,1.298,0.910,0.411,0.716,0.681,�k��,2.4,��
2019/12/11,11:50,0.721,1.031,0.693,1.297,0.908,0.409,0.717,0.683,�k��,2.5,��
2019/12/11,12:00,0.721,1.030,0.693,1.299,0.906,0.411,0.716,0.683,�k�k��,2.0,��
2019/12/11,12:10,0.723,1.033,0.693,1.300,0.907,0.413,0.716,0.683,�k�k��,1.1,��
2019/12/11,12:20,0.722,1.036,0.694,1.298,0.905,0.411,0.717,0.682,���쓌,2.1,��
2019/12/11,12:30,0.722,1.032,0.695,1.302,0.905,0.412,0.718,0.680,���k��,1.1,��
2019/12/11,12:40,0.722,1.031,0.695,1.300,0.905,0.412,0.717,0.681,���k��,1.2,��
2019/12/11,12:50,0.723,1.034,0.694,1.299,0.905,0.413,0.719,0.682,�k��,1.3,��
2019/12/11,13:00,0.723,1.033,0.696,1.300,0.906,0.414,0.717,0.680,���k��,1.1,��
2019/12/11,13:10,0.722,1.032,0.692,1.301,0.906,0.414,0.718,0.677,�k��,1.0,��
2019/12/11,13:20,0.723,1.036,0.693,1.297,0.906,0.413,0.719,0.680,�k��,0.6,��
2019/12/11,13:30,0.722,1.034,0.695,1.302,0.904,0.414,0.720,0.679,��,1.2,��
2019/12/11,13:40,0.723,1.034,0.696,1.299,0.906,0.414,0.720,0.679,�쓌,1.1,��
2019/12/11,13:50,0.724,1.031,0.694,1.298,0.907,0.413,0.719,0.681,�쓌,0.6,��
2019/12/11,14:00,0.721,1.036,0.694,1.301,0.905,0.414,0.720,0.680,�쓌,0.8,��
2019/12/11,14:10,0.722,1.033,0.695,1.300,0.906,0.415,0.719,0.679,�쓌,1.0,��
2019/12/11,14:20,0.723,1.034,0.695,1.299,0.908,0.413,0.719,0.679,�쓌,1.5,��
2019/12/11,14:30,0.724,1.035,0.696,1.301,0.905,0.414,0.719,0.681,��쓌,1.6,��
2019/12/11,14:40,0.723,1.037,0.696,1.299,0.907,0.414,0.717,0.681,�쓌,1.8,��
2019/12/11,14:50,0.725,1.037,0.695,1.298,0.904,0.414,0.719,0.682,�쓌,1.2,��
2019/12/11,15:00,0.726,1.038,0.694,1.299,0.906,0.414,0.720,0.681,�쓌,1.4,��
2019/12/11,15:10,0.724,1.039,0.694,1.300,0.907,0.413,0.717,0.680,�쓌,1.3,��
2019/12/11,15:20,0.726,1.038,0.695,1.299,0.907,0.413,0.718,0.681,-,CALM,��
2019/12/11,15:30,0.726,1.038,0.696,1.298,0.905,0.413,0.718,0.682,-,CALM,��
2019/12/11,15:40,0.724,1.036,0.695,1.298,0.907,0.413,0.719,0.680,�쓌,0.6,��
2019/12/11,15:50,0.721,1.038,0.695,1.299,0.908,0.413,0.717,0.683,-,CALM,��
2019/12/11,16:00,0.723,1.037,0.693,1.298,0.905,0.414,0.718,0.684,�k,1.3,��
2019/12/11,16:10,0.725,1.040,0.693,1.298,0.905,0.415,0.719,0.681,-,CALM,��
2019/12/11,16:20,0.722,1.036,0.695,1.299,0.907,0.413,0.719,0.685,-,CALM,��
2019/12/11,16:30,0.723,1.038,0.696,1.298,0.909,0.414,0.718,0.684,-,CALM,��
2019/12/11,16:40,0.723,1.039,0.693,1.297,0.909,0.411,0.719,0.681,�k�k��,0.9,��
2019/12/11,16:50,0.719,1.039,0.694,1.299,0.905,0.413,0.719,0.682,-,CALM,��
2019/12/11,17:00,0.720,1.038,0.694,1.300,0.906,0.412,0.720,0.683,-,CALM,��
2019/12/11,17:10,0.720,1.038,0.694,1.299,0.909,0.413,0.721,0.683,-,CALM,��
2019/12/11,17:20,0.718,1.037,0.695,1.300,0.908,0.412,0.719,0.682,-,CALM,��
2019/12/11,17:30,0.722,1.038,0.695,1.298,0.908,0.412,0.721,0.683,�k�k��,0.7,��
2019/12/11,17:40,0.723,1.037,0.694,1.300,0.907,0.414,0.721,0.681,-,CALM,��
2019/12/11,17:50,0.722,1.039,0.695,1.297,0.908,0.413,0.721,0.682,-,CALM,��
2019/12/11,18:00,0.723,1.039,0.696,1.299,0.908,0.413,0.722,0.683,�k�k��,1.1,��
2019/12/11,18:10,0.723,1.037,0.695,1.300,0.908,0.413,0.720,0.683,�k�k��,1.4,��
2019/12/11,18:20,0.723,1.037,0.695,1.299,0.908,0.414,0.720,0.684,�k�k��,2.5,��
2019/12/11,18:30,0.723,1.037,0.695,1.298,0.908,0.413,0.719,0.680,�k�k��,2.8,��
2019/12/11,18:40,0.721,1.039,0.695,1.298,0.910,0.414,0.720,0.683,�k�k��,2.4,��
2019/12/11,18:50,0.722,1.039,0.695,1.297,0.908,0.413,0.719,0.682,�k�k��,2.9,��
2019/12/11,19:00,0.723,1.036,0.696,1.299,0.908,0.414,0.719,0.682,�k�k��,2.8,��
2019/12/11,19:10,0.723,1.038,0.694,1.300,0.909,0.412,0.719,0.684,�k�k��,2.2,��
2019/12/11,19:20,0.723,1.038,0.694,1.300,0.908,0.412,0.719,0.684,�k��,1.5,��
2019/12/11,19:30,0.725,1.035,0.695,1.299,0.907,0.413,0.720,0.682,�k��,1.4,��
2019/12/11,19:40,0.723,1.040,0.695,1.298,0.907,0.412,0.720,0.683,��,0.6,��
2019/12/11,19:50,0.724,1.037,0.694,1.300,0.909,0.413,0.719,0.682,�k��,1.0,��
2019/12/11,20:00,0.723,1.036,0.695,1.300,0.910,0.412,0.721,0.680,�k��,0.9,��
2019/12/11,20:10,0.723,1.039,0.696,1.299,0.909,0.413,0.720,0.683,���k��,0.5,��
2019/12/11,20:20,0.724,1.037,0.697,1.299,0.911,0.414,0.721,0.682,-,CALM,��
2019/12/11,20:30,0.724,1.038,0.696,1.299,0.910,0.413,0.722,0.682,-,CALM,��
2019/12/11,20:40,0.724,1.040,0.694,1.300,0.908,0.414,0.721,0.682,�k�k��,0.7,��
2019/12/11,20:50,0.725,1.039,0.695,1.301,0.909,0.413,0.720,0.682,�k�k��,1.2,��
2019/12/11,21:00,0.724,1.041,0.695,1.301,0.910,0.414,0.719,0.681,�k,1.5,��
2019/12/11,21:10,0.724,1.037,0.695,1.299,0.909,0.412,0.721,0.681,�k�k��,1.7,��
2019/12/11,21:20,0.724,1.040,0.696,1.301,0.911,0.413,0.719,0.680,�k�k��,3.3,��
2019/12/11,21:30,0.723,1.038,0.696,1.299,0.909,0.412,0.721,0.682,�k�k��,4.1,��
2019/12/11,21:40,0.726,1.038,0.697,1.301,0.908,0.414,0.722,0.683,�k�k��,3.8,��
2019/12/11,21:50,0.726,1.039,0.697,1.300,0.909,0.413,0.721,0.683,�k�k��,5.8,��
2019/12/11,22:00,0.725,1.039,0.697,1.301,0.909,0.414,0.720,0.684,�k�k��,6.0,��
2019/12/11,22:10,0.725,1.039,0.697,1.303,0.909,0.413,0.721,0.683,�k�k��,4.5,��
2019/12/11,22:20,0.724,1.040,0.697,1.301,0.912,0.415,0.722,0.683,�k�k��,4.4,��
2019/12/11,22:30,0.726,1.039,0.696,1.301,0.909,0.412,0.720,0.683,�k,5.3,��
2019/12/11,22:40,0.725,1.039,0.698,1.300,0.908,0.413,0.722,0.684,�k,5.0,��
2019/12/11,22:50,0.724,1.040,0.698,1.300,0.907,0.415,0.719,0.682,�k�k��,3.4,��
2019/12/11,23:00,0.724,1.039,0.696,1.301,0.910,0.413,0.719,0.683,�k�k��,4.2,��
2019/12/11,23:10,0.725,1.039,0.697,1.299,0.909,0.414,0.721,0.683,�k�k��,4.3,��
2019/12/11,23:20,0.725,1.039,0.697,1.301,0.909,0.414,0.720,0.684,�k��,3.0,��
2019/12/11,23:30,0.726,1.041,0.697,1.299,0.909,0.413,0.722,0.682,�k��,1.6,��
2019/12/11,23:40,0.724,1.039,0.697,1.299,0.908,0.413,0.720,0.683,�k�k��,1.3,��
2019/12/11,23:50,0.726,1.035,0.698,1.301,0.910,0.415,0.720,0.683,�k��,0.7,��
